Time,TemperatureF,DewpointF,PressureIn,WindDirection,WindDirectionDegrees,WindSpeedMPH,WindSpeedGustMPH,Humidity,HourlyPrecipIn,Conditions,Clouds,dailyrainin,SolarRadiationWatts/m^2,SoftwareType,DateUTC
2013-03-02 00:00:00,41.9,35.8,29.91,West,281,0.0,2.0,79,0.00,,,0.00,0.0,meteohub,2013-03-02 05:00:00,
2013-03-02 00:01:00,42.1,36.0,29.91,West,281,1.0,2.0,79,0.00,,,0.00,0.0,meteohub,2013-03-02 05:01:00,
2013-03-02 00:06:00,42.3,36.1,29.91,West,281,0.0,2.0,79,0.00,,,0.00,0.0,meteohub,2013-03-02 05:06:00,
2013-03-02 00:11:00,42.3,36.0,29.92,West,281,1.0,2.0,78,0.00,,,0.00,0.0,meteohub,2013-03-02 05:11:00,
2013-03-02 00:16:00,42.3,36.0,29.91,WSW,245,2.0,2.0,78,0.00,,,0.00,0.0,meteohub,2013-03-02 05:16:00,
2013-03-02 00:21:00,42.3,36.0,29.92,WSW,245,0.0,4.0,78,0.00,,,0.00,0.0,meteohub,2013-03-02 05:21:00,
2013-03-02 00:26:00,42.1,35.8,29.92,WSW,245,0.0,4.0,78,0.00,,,0.00,0.0,meteohub,2013-03-02 05:26:00,
2013-03-02 00:31:00,41.7,35.8,29.92,West,269,2.0,4.0,79,0.00,,,0.00,0.0,meteohub,2013-03-02 05:31:00,
2013-03-02 00:36:00,41.7,35.8,29.92,West,266,1.0,2.0,79,0.00,,,0.00,0.0,meteohub,2013-03-02 05:36:00,
2013-03-02 00:41:00,41.9,35.6,29.92,West,261,0.0,5.0,78,0.00,,,0.00,0.0,meteohub,2013-03-02 05:41:00,
2013-03-02 00:46:00,41.5,35.2,29.91,West,261,1.0,5.0,78,0.00,,,0.00,0.0,meteohub,2013-03-02 05:46:00,
2013-03-02 00:51:00,41.5,35.6,29.91,WNW,303,1.0,5.0,79,0.00,,,0.00,0.0,meteohub,2013-03-02 05:51:00,
2013-03-02 00:56:00,41.5,35.2,29.91,NW,304,0.0,4.0,78,0.00,,,0.00,0.0,meteohub,2013-03-02 05:56:00,
2013-03-02 01:01:00,41.5,35.2,29.91,WNW,290,1.0,4.0,78,0.00,,,0.00,0.0,meteohub,2013-03-02 06:01:00,
2013-03-02 01:06:00,41.5,35.2,29.91,WNW,290,0.0,4.0,78,0.00,,,0.00,0.0,meteohub,2013-03-02 06:06:00,
2013-03-02 01:11:00,41.2,34.9,29.92,NW,308,1.0,4.0,78,0.00,,,0.00,0.0,meteohub,2013-03-02 06:11:00,
2013-03-02 01:16:00,41.2,35.2,29.92,NW,308,0.0,3.0,79,0.00,,,0.00,0.0,meteohub,2013-03-02 06:16:00,
2013-03-02 01:21:00,40.8,34.9,29.92,NW,307,0.0,2.0,79,0.00,,,0.00,0.0,meteohub,2013-03-02 06:21:00,
2013-03-02 01:26:00,40.8,34.9,29.92,WNW,294,0.0,3.0,79,0.00,,,0.00,0.0,meteohub,2013-03-02 06:26:00,
2013-03-02 01:31:00,40.6,34.7,29.92,WNW,294,0.0,3.0,79,0.00,,,0.00,0.0,meteohub,2013-03-02 06:31:00,
2013-03-02 01:36:00,40.6,34.7,29.92,WNW,294,0.0,3.0,79,0.00,,,0.00,0.0,meteohub,2013-03-02 06:36:00,
2013-03-02 01:41:00,40.6,34.9,29.92,West,267,0.0,2.0,80,0.00,,,0.00,0.0,meteohub,2013-03-02 06:41:00,
2013-03-02 01:46:00,40.5,34.7,29.92,WSW,238,0.0,4.0,80,0.00,,,0.00,0.0,meteohub,2013-03-02 06:46:00,
2013-03-02 01:51:00,40.5,34.7,29.92,West,277,0.0,4.0,80,0.00,,,0.00,0.0,meteohub,2013-03-02 06:51:00,
2013-03-02 01:56:00,40.5,34.5,29.92,West,277,1.0,3.0,79,0.00,,,0.00,0.0,meteohub,2013-03-02 06:56:00,
2013-03-02 02:01:00,40.5,34.5,29.92,West,277,1.0,3.0,79,0.00,,,0.00,0.0,meteohub,2013-03-02 07:01:00,
2013-03-02 02:06:00,40.5,34.5,29.91,West,277,0.0,2.0,79,0.00,,,0.00,0.0,meteohub,2013-03-02 07:06:00,
2013-03-02 02:11:00,40.6,34.3,29.91,West,280,0.0,3.0,78,0.00,,,0.00,0.0,meteohub,2013-03-02 07:11:00,
2013-03-02 02:16:00,40.5,33.8,29.91,West,279,0.0,4.0,77,0.00,,,0.00,0.0,meteohub,2013-03-02 07:16:00,
2013-03-02 02:21:00,40.3,33.6,29.91,West,279,0.0,4.0,77,0.00,,,0.00,0.0,meteohub,2013-03-02 07:21:00,
2013-03-02 02:26:00,40.1,33.4,29.91,West,279,0.0,3.0,77,0.00,,,0.00,0.0,meteohub,2013-03-02 07:26:00,
2013-03-02 02:31:00,39.7,33.4,29.91,West,279,0.0,3.0,78,0.00,,,0.00,0.0,meteohub,2013-03-02 07:31:00,
2013-03-02 02:36:00,39.4,33.4,29.90,West,279,0.0,3.0,79,0.00,,,0.00,0.0,meteohub,2013-03-02 07:36:00,
2013-03-02 02:41:00,39.4,33.1,29.90,West,279,0.0,2.0,78,0.00,,,0.00,0.0,meteohub,2013-03-02 07:41:00,
2013-03-02 02:46:00,39.4,33.4,29.90,West,279,0.0,2.0,79,0.00,,,0.00,0.0,meteohub,2013-03-02 07:46:00,
2013-03-02 02:51:00,39.0,33.1,29.90,West,279,0.0,2.0,79,0.00,,,0.00,0.0,meteohub,2013-03-02 07:51:00,
2013-03-02 02:56:00,38.8,32.9,29.90,West,279,0.0,2.0,79,0.00,,,0.00,0.0,meteohub,2013-03-02 07:56:00,
2013-03-02 03:01:00,38.5,32.9,29.90,West,279,0.0,2.0,80,0.00,,,0.00,0.0,meteohub,2013-03-02 08:01:00,
2013-03-02 03:06:00,38.1,32.5,29.90,West,279,0.0,0.0,80,0.00,,,0.00,0.0,meteohub,2013-03-02 08:06:00,
2013-03-02 03:11:00,38.1,33.1,29.90,West,279,0.0,0.0,82,0.00,,,0.00,0.0,meteohub,2013-03-02 08:11:00,
2013-03-02 03:17:00,37.9,32.9,29.89,West,279,0.0,0.0,82,0.00,,,0.00,0.0,meteohub,2013-03-02 08:17:00,
2013-03-02 03:22:00,37.9,33.3,29.89,West,279,0.0,0.0,83,0.00,,,0.00,0.0,meteohub,2013-03-02 08:22:00,
2013-03-02 03:27:00,37.8,33.1,29.89,West,279,0.0,0.0,83,0.00,,,0.00,0.0,meteohub,2013-03-02 08:27:00,
2013-03-02 03:32:00,37.9,33.3,29.89,West,279,0.0,0.0,83,0.00,,,0.00,0.0,meteohub,2013-03-02 08:32:00,
2013-03-02 03:37:00,37.9,33.3,29.89,West,279,0.0,0.0,83,0.00,,,0.00,0.0,meteohub,2013-03-02 08:37:00,
2013-03-02 03:42:00,37.8,33.4,29.89,West,279,0.0,0.0,84,0.00,,,0.00,0.0,meteohub,2013-03-02 08:42:00,
2013-03-02 03:47:00,37.6,33.3,29.89,West,279,0.0,0.0,84,0.00,,,0.00,0.0,meteohub,2013-03-02 08:47:00,
2013-03-02 03:52:00,37.6,33.3,29.89,West,279,0.0,0.0,84,0.00,,,0.00,0.0,meteohub,2013-03-02 08:52:00,
2013-03-02 03:57:00,37.6,33.4,29.89,West,279,0.0,0.0,85,0.00,,,0.00,0.0,meteohub,2013-03-02 08:57:00,
2013-03-02 04:02:00,37.6,33.4,29.89,West,279,0.0,0.0,85,0.00,,,0.00,0.0,meteohub,2013-03-02 09:02:00,
2013-03-02 04:07:00,37.8,33.6,29.89,West,279,0.0,0.0,85,0.00,,,0.00,0.0,meteohub,2013-03-02 09:07:00,
2013-03-02 04:12:00,37.9,33.6,29.89,West,279,0.0,1.0,84,0.00,,,0.00,0.0,meteohub,2013-03-02 09:12:00,
2013-03-02 04:17:00,37.9,33.6,29.90,West,279,1.0,1.0,84,0.00,,,0.00,0.0,meteohub,2013-03-02 09:17:00,
2013-03-02 04:22:00,37.9,33.6,29.90,West,279,0.0,1.0,84,0.00,,,0.00,0.0,meteohub,2013-03-02 09:22:00,
2013-03-02 04:27:00,38.1,33.8,29.89,West,279,0.0,1.0,84,0.00,,,0.00,0.0,meteohub,2013-03-02 09:27:00,
2013-03-02 04:32:00,38.1,33.8,29.90,West,279,0.0,1.0,84,0.00,,,0.00,0.0,meteohub,2013-03-02 09:32:00,
2013-03-02 04:37:00,38.3,34.0,29.90,West,277,0.0,1.0,84,0.00,,,0.00,0.0,meteohub,2013-03-02 09:37:00,
2013-03-02 04:42:00,38.5,33.8,29.90,West,277,0.0,3.0,83,0.00,,,0.00,0.0,meteohub,2013-03-02 09:42:00,
2013-03-02 04:47:00,38.7,33.6,29.90,West,276,0.0,3.0,82,0.00,,,0.00,0.0,meteohub,2013-03-02 09:47:00,
2013-03-02 04:52:00,38.7,33.6,29.90,West,276,0.0,3.0,82,0.00,,,0.00,0.0,meteohub,2013-03-02 09:52:00,
2013-03-02 04:57:00,38.8,33.4,29.90,West,271,1.0,3.0,81,0.00,,,0.00,0.0,meteohub,2013-03-02 09:57:00,
2013-03-02 05:02:00,39.0,33.4,29.90,WNW,290,1.0,3.0,80,0.00,,,0.00,0.0,meteohub,2013-03-02 10:02:00,
2013-03-02 05:07:00,39.0,33.1,29.90,WSW,257,5.0,5.0,79,0.00,,,0.00,0.0,meteohub,2013-03-02 10:07:00,
2013-03-02 05:12:00,39.4,33.1,29.90,WNW,282,3.0,5.0,78,0.00,,,0.00,0.0,meteohub,2013-03-02 10:12:00,
2013-03-02 05:17:00,39.6,32.9,29.90,West,280,1.0,8.0,77,0.00,,,0.00,0.0,meteohub,2013-03-02 10:17:00,
2013-03-02 05:22:00,39.6,32.9,29.90,SSW,213,0.0,8.0,77,0.00,,,0.00,0.0,meteohub,2013-03-02 10:22:00,
2013-03-02 05:27:00,39.6,32.5,29.90,WNW,294,2.0,8.0,76,0.00,,,0.00,0.0,meteohub,2013-03-02 10:27:00,
2013-03-02 05:32:00,39.6,32.9,29.90,West,262,3.0,5.0,77,0.00,,,0.00,0.0,meteohub,2013-03-02 10:32:00,
2013-03-02 05:37:00,39.7,32.7,29.90,ESE,123,1.0,5.0,76,0.00,,,0.00,0.0,meteohub,2013-03-02 10:37:00,
2013-03-02 05:42:00,39.6,32.5,29.90,WSW,247,0.0,5.0,76,0.00,,,0.00,0.0,meteohub,2013-03-02 10:42:00,
2013-03-02 05:47:00,39.6,32.4,29.90,West,273,0.0,5.0,75,0.00,,,0.00,0.0,meteohub,2013-03-02 10:47:00,
2013-03-02 05:52:00,39.2,32.4,29.90,West,273,1.0,5.0,76,0.00,,,0.00,0.0,meteohub,2013-03-02 10:52:00,
2013-03-02 05:58:00,39.0,32.2,29.90,West,273,1.0,5.0,76,0.00,,,0.00,0.0,meteohub,2013-03-02 10:58:00,
2013-03-02 06:03:00,38.7,32.0,29.90,West,275,1.0,5.0,77,0.00,,,0.00,0.0,meteohub,2013-03-02 11:03:00,
2013-03-02 06:08:00,38.5,32.2,29.90,West,273,1.0,3.0,78,0.00,,,0.00,0.0,meteohub,2013-03-02 11:08:00,
2013-03-02 06:13:00,38.1,31.8,29.90,West,262,0.0,3.0,78,0.00,,,0.00,0.0,meteohub,2013-03-02 11:13:00,
2013-03-02 06:18:00,37.9,32.0,29.90,West,262,0.0,3.0,79,0.00,,,0.00,0.0,meteohub,2013-03-02 11:18:00,
2013-03-02 06:23:00,37.8,32.2,29.90,West,262,0.0,3.0,80,0.00,,,0.00,0.0,meteohub,2013-03-02 11:23:00,
2013-03-02 06:28:00,37.6,32.0,29.90,WSW,238,1.0,2.0,80,0.00,,,0.00,0.0,meteohub,2013-03-02 11:28:00,
2013-03-02 06:33:00,37.4,31.8,29.90,SW,227,0.0,2.0,80,0.00,,,0.00,0.0,meteohub,2013-03-02 11:33:00,
2013-03-02 06:38:00,37.2,31.6,29.90,SW,225,1.0,2.0,80,0.00,,,0.00,0.0,meteohub,2013-03-02 11:38:00,
2013-03-02 06:43:00,37.2,31.6,29.90,SW,225,0.0,2.0,80,0.00,,,0.00,0.0,meteohub,2013-03-02 11:43:00,
2013-03-02 06:48:00,37.0,31.8,29.90,SW,224,0.0,2.0,81,0.00,,,0.00,0.0,meteohub,2013-03-02 11:48:00,
2013-03-02 06:53:00,36.9,31.6,29.90,SW,224,0.0,2.0,81,0.00,,,0.00,5.0,meteohub,2013-03-02 11:53:00,
2013-03-02 06:58:00,36.7,31.6,29.90,WNW,283,0.0,2.0,82,0.00,,,0.00,9.0,meteohub,2013-03-02 11:58:00,
2013-03-02 07:03:00,36.5,31.5,29.90,WNW,283,0.0,3.0,82,0.00,,,0.00,12.0,meteohub,2013-03-02 12:03:00,
2013-03-02 07:08:00,36.5,31.8,29.90,West,274,0.0,3.0,83,0.00,,,0.00,16.0,meteohub,2013-03-02 12:08:00,
2013-03-02 07:13:00,36.7,32.0,29.91,West,274,0.0,3.0,83,0.00,,,0.00,21.0,meteohub,2013-03-02 12:13:00,
2013-03-02 07:18:00,36.7,32.0,29.90,West,274,1.0,2.0,83,0.00,,,0.00,25.0,meteohub,2013-03-02 12:18:00,
2013-03-02 07:23:00,36.9,32.2,29.90,West,274,0.0,2.0,83,0.00,,,0.00,32.0,meteohub,2013-03-02 12:23:00,
2013-03-02 07:28:00,36.9,32.2,29.90,West,274,1.0,2.0,83,0.00,,,0.00,35.0,meteohub,2013-03-02 12:28:00,
2013-03-02 07:33:00,37.0,32.4,29.91,SSW,202,3.0,3.0,83,0.00,,,0.00,40.0,meteohub,2013-03-02 12:33:00,
2013-03-02 07:38:00,37.2,32.2,29.90,SSW,202,1.0,3.0,82,0.00,,,0.00,44.0,meteohub,2013-03-02 12:38:00,
2013-03-02 07:43:00,37.8,32.7,29.91,SSW,202,1.0,3.0,82,0.00,,,0.00,46.0,meteohub,2013-03-02 12:43:00,
2013-03-02 07:49:00,37.9,32.7,29.91,West,259,2.0,3.0,81,0.00,,,0.00,49.0,meteohub,2013-03-02 12:49:00,
2013-03-02 07:54:00,38.5,32.9,29.91,West,278,0.0,3.0,80,0.00,,,0.00,51.0,meteohub,2013-03-02 12:54:00,
2013-03-02 07:59:00,38.8,32.9,29.91,SW,224,1.0,5.0,79,0.00,,,0.00,84.0,meteohub,2013-03-02 12:59:00,
2013-03-02 08:04:00,39.2,32.9,29.91,WNW,290,0.0,5.0,78,0.00,,,0.00,230.0,meteohub,2013-03-02 13:04:00,
2013-03-02 08:09:00,39.7,33.1,29.91,WSW,255,2.0,5.0,77,0.00,,,0.00,251.0,meteohub,2013-03-02 13:09:00,
2013-03-02 08:14:00,40.1,33.1,29.91,West,259,3.0,5.0,76,0.00,,,0.00,269.0,meteohub,2013-03-02 13:14:00,
2013-03-02 08:19:00,40.6,33.3,29.91,WNW,286,5.0,6.0,75,0.00,,,0.00,288.0,meteohub,2013-03-02 13:19:00,
2013-03-02 08:24:00,40.8,33.3,29.91,SW,227,2.0,6.0,74,0.00,,,0.00,304.0,meteohub,2013-03-02 13:24:00,
2013-03-02 08:29:00,41.5,33.8,29.91,NW,304,1.0,10.0,74,0.00,,,0.00,323.0,meteohub,2013-03-02 13:29:00,
2013-03-02 08:34:00,41.9,33.8,29.91,West,266,3.0,10.0,73,0.00,,,0.00,341.0,meteohub,2013-03-02 13:34:00,
2013-03-02 08:39:00,42.4,34.0,29.91,West,266,2.0,6.0,72,0.00,,,0.00,359.0,meteohub,2013-03-02 13:39:00,
2013-03-02 08:44:00,43.2,34.0,29.91,NW,308,1.0,6.0,70,0.00,,,0.00,378.0,meteohub,2013-03-02 13:44:00,
2013-03-02 08:49:00,43.2,34.0,29.90,WSW,258,3.0,6.0,70,0.00,,,0.00,397.0,meteohub,2013-03-02 13:49:00,
2013-03-02 08:54:00,43.5,34.7,29.90,West,269,2.0,5.0,71,0.00,,,0.00,415.0,meteohub,2013-03-02 13:54:00,
2013-03-02 08:59:00,44.2,35.1,29.90,WSW,258,2.0,7.0,70,0.00,,,0.00,434.0,meteohub,2013-03-02 13:59:00,
2013-03-02 09:04:00,44.4,34.5,29.90,WSW,242,2.0,7.0,68,0.00,,,0.00,454.0,meteohub,2013-03-02 14:04:00,
2013-03-02 09:09:00,44.2,34.3,29.90,West,279,4.0,6.0,68,0.00,,,0.00,466.0,meteohub,2013-03-02 14:09:00,
2013-03-02 09:14:00,44.8,35.2,29.90,SW,229,2.0,8.0,69,0.00,,,0.00,485.0,meteohub,2013-03-02 14:14:00,
2013-03-02 09:19:00,44.8,34.2,29.90,NE,42,3.0,8.0,66,0.00,,,0.00,501.0,meteohub,2013-03-02 14:19:00,
2013-03-02 09:24:00,45.3,35.4,29.90,SW,220,1.0,11.0,68,0.00,,,0.00,517.0,meteohub,2013-03-02 14:24:00,
2013-03-02 09:29:00,46.2,35.1,29.90,NW,313,2.0,11.0,65,0.00,,,0.00,519.0,meteohub,2013-03-02 14:29:00,
2013-03-02 09:34:00,46.4,34.5,29.90,WSW,247,2.0,11.0,63,0.00,,,0.00,547.0,meteohub,2013-03-02 14:34:00,
2013-03-02 09:39:00,46.0,34.5,29.90,SSW,210,1.0,6.0,64,0.00,,,0.00,563.0,meteohub,2013-03-02 14:39:00,
2013-03-02 09:45:00,46.9,35.8,29.90,SW,232,1.0,8.0,65,0.00,,,0.00,580.0,meteohub,2013-03-02 14:45:00,
2013-03-02 09:50:00,47.1,35.2,29.90,SSW,202,2.0,8.0,63,0.00,,,0.00,598.0,meteohub,2013-03-02 14:50:00,
2013-03-02 09:55:00,47.5,34.7,29.89,SW,215,3.0,8.0,61,0.00,,,0.00,610.0,meteohub,2013-03-02 14:55:00,
2013-03-02 10:00:00,47.5,35.1,29.89,WSW,255,3.0,8.0,62,0.00,,,0.00,626.0,meteohub,2013-03-02 15:00:00,
2013-03-02 10:05:00,47.7,34.9,29.89,SW,225,2.0,8.0,61,0.00,,,0.00,645.0,meteohub,2013-03-02 15:05:00,
2013-03-02 10:10:00,47.8,34.7,29.89,West,272,2.0,6.0,60,0.00,,,0.00,673.0,meteohub,2013-03-02 15:10:00,
2013-03-02 10:15:00,48.6,35.2,29.89,West,261,5.0,6.0,60,0.00,,,0.00,687.0,meteohub,2013-03-02 15:15:00,
2013-03-02 10:20:00,48.4,34.3,29.88,SSW,201,3.0,9.0,58,0.00,,,0.00,705.0,meteohub,2013-03-02 15:20:00,
2013-03-02 10:25:00,48.4,34.3,29.89,SSW,209,1.0,9.0,58,0.00,,,0.00,733.0,meteohub,2013-03-02 15:25:00,
2013-03-02 10:30:00,48.7,34.2,29.88,SSW,211,4.0,10.0,57,0.00,,,0.00,823.0,meteohub,2013-03-02 15:30:00,
2013-03-02 10:35:00,49.1,34.2,29.88,NW,319,1.0,10.0,56,0.00,,,0.00,772.0,meteohub,2013-03-02 15:35:00,
2013-03-02 10:40:00,48.9,33.1,29.88,SSW,202,4.0,10.0,54,0.00,,,0.00,160.0,meteohub,2013-03-02 15:40:00,
2013-03-02 10:45:00,48.7,34.2,29.88,SSW,205,2.0,9.0,57,0.00,,,0.00,853.0,meteohub,2013-03-02 15:45:00,
2013-03-02 10:50:00,48.6,32.7,29.88,NNW,342,3.0,9.0,54,0.00,,,0.00,213.0,meteohub,2013-03-02 15:50:00,
2013-03-02 10:55:00,47.8,32.5,29.88,WNW,290,9.0,11.0,55,0.00,,,0.00,856.0,meteohub,2013-03-02 15:55:00,
2013-03-02 11:00:00,48.9,33.4,29.88,WSW,257,5.0,11.0,55,0.00,,,0.00,900.0,meteohub,2013-03-02 16:00:00,
2013-03-02 11:05:00,50.5,34.0,29.87,SSE,165,4.0,12.0,53,0.00,,,0.00,977.0,meteohub,2013-03-02 16:05:00,
2013-03-02 11:10:00,51.1,33.6,29.87,West,268,0.0,12.0,51,0.00,,,0.00,977.0,meteohub,2013-03-02 16:10:00,
2013-03-02 11:15:00,51.4,33.4,29.87,SSE,168,2.0,9.0,50,0.00,,,0.00,223.0,meteohub,2013-03-02 16:15:00,
2013-03-02 11:20:00,51.6,33.1,29.87,SE,138,3.0,9.0,49,0.00,,,0.00,997.0,meteohub,2013-03-02 16:20:00,
2013-03-02 11:25:00,52.3,32.2,29.87,WSW,254,5.0,10.0,46,0.00,,,0.00,993.0,meteohub,2013-03-02 16:25:00,
2013-03-02 11:30:00,52.2,32.0,29.87,West,266,4.0,11.0,46,0.00,,,0.00,1005.0,meteohub,2013-03-02 16:30:00,
2013-03-02 11:35:00,52.9,33.3,29.87,SSW,206,4.0,11.0,47,0.00,,,0.00,990.0,meteohub,2013-03-02 16:35:00,
2013-03-02 11:40:00,53.1,32.4,29.87,SSW,206,5.0,11.0,45,0.00,,,0.00,972.0,meteohub,2013-03-02 16:40:00,
2013-03-02 11:45:00,53.1,32.4,29.86,WSW,254,6.0,9.0,45,0.00,,,0.00,1041.0,meteohub,2013-03-02 16:45:00,
2013-03-02 11:50:00,54.0,33.1,29.86,SW,214,3.0,9.0,45,0.00,,,0.00,1021.0,meteohub,2013-03-02 16:50:00,
2013-03-02 11:55:00,53.8,32.9,29.86,West,271,6.0,9.0,45,0.00,,,0.00,480.0,meteohub,2013-03-02 16:55:00,
2013-03-02 12:00:00,53.2,32.4,29.86,SW,234,4.0,12.0,45,0.00,,,0.00,278.0,meteohub,2013-03-02 17:00:00,
2013-03-02 12:05:00,52.0,31.8,29.86,West,274,4.0,12.0,46,0.00,,,0.00,993.0,meteohub,2013-03-02 17:05:00,
2013-03-02 12:10:00,51.6,32.0,29.86,NW,313,8.0,12.0,47,0.00,,,0.00,265.0,meteohub,2013-03-02 17:10:00,
2013-03-02 12:15:00,51.8,31.6,29.85,West,280,4.0,12.0,46,0.00,,,0.00,288.0,meteohub,2013-03-02 17:15:00,
2013-03-02 12:20:00,50.7,31.8,29.85,WNW,297,1.0,12.0,48,0.00,,,0.00,276.0,meteohub,2013-03-02 17:20:00,
2013-03-02 12:25:00,51.1,32.0,29.85,WSW,243,3.0,12.0,48,0.00,,,0.00,355.0,meteohub,2013-03-02 17:25:00,
2013-03-02 12:30:00,52.0,32.4,29.85,WSW,256,1.0,9.0,47,0.00,,,0.00,355.0,meteohub,2013-03-02 17:30:00,
2013-03-02 12:36:00,51.3,31.6,29.85,West,261,2.0,9.0,47,0.00,,,0.00,244.0,meteohub,2013-03-02 17:36:00,
2013-03-02 12:41:00,50.7,31.8,29.85,NNW,327,2.0,9.0,48,0.00,,,0.00,244.0,meteohub,2013-03-02 17:41:00,
2013-03-02 12:46:00,50.4,32.0,29.85,SW,218,1.0,10.0,49,0.00,,,0.00,239.0,meteohub,2013-03-02 17:46:00,
2013-03-02 12:51:00,50.5,33.1,29.84,West,263,2.0,10.0,51,0.00,,,0.00,308.0,meteohub,2013-03-02 17:51:00,
2013-03-02 12:56:00,50.5,32.0,29.84,WNW,292,3.0,8.0,49,0.00,,,0.00,329.0,meteohub,2013-03-02 17:56:00,
2013-03-02 13:01:00,50.2,32.2,29.84,WNW,290,6.0,10.0,50,0.00,,,0.00,320.0,meteohub,2013-03-02 18:01:00,
2013-03-02 13:06:00,50.4,32.9,29.84,West,280,4.0,12.0,51,0.00,,,0.00,357.0,meteohub,2013-03-02 18:06:00,
2013-03-02 13:11:00,50.7,33.3,29.84,ESE,107,2.0,12.0,51,0.00,,,0.00,237.0,meteohub,2013-03-02 18:11:00,
2013-03-02 13:16:00,50.2,32.2,29.84,WNW,289,0.0,12.0,50,0.00,,,0.00,135.0,meteohub,2013-03-02 18:16:00,
2013-03-02 13:21:00,49.3,32.0,29.84,WNW,289,3.0,9.0,51,0.00,,,0.00,151.0,meteohub,2013-03-02 18:21:00,
2013-03-02 13:26:00,49.1,32.2,29.83,WSW,254,1.0,8.0,52,0.00,,,0.00,163.0,meteohub,2013-03-02 18:26:00,
2013-03-02 13:31:00,49.3,33.3,29.84,North,349,3.0,9.0,54,0.00,,,0.00,179.0,meteohub,2013-03-02 18:31:00,
2013-03-02 13:36:00,49.5,33.1,29.84,SSW,213,3.0,9.0,53,0.00,,,0.00,206.0,meteohub,2013-03-02 18:36:00,
2013-03-02 13:41:00,49.1,33.3,29.83,WSW,257,5.0,6.0,54,0.00,,,0.00,190.0,meteohub,2013-03-02 18:41:00,
2013-03-02 13:46:00,48.9,33.1,29.83,WNW,291,1.0,7.0,54,0.00,,,0.00,176.0,meteohub,2013-03-02 18:46:00,
2013-03-02 13:51:00,49.1,33.3,29.83,WSW,257,1.0,7.0,54,0.00,,,0.00,188.0,meteohub,2013-03-02 18:51:00,
2013-03-02 13:56:00,49.1,33.6,29.83,WNW,297,2.0,11.0,55,0.00,,,0.00,225.0,meteohub,2013-03-02 18:56:00,
2013-03-02 14:01:00,49.5,33.4,29.83,WNW,300,4.0,11.0,54,0.00,,,0.00,220.0,meteohub,2013-03-02 19:01:00,
2013-03-02 14:06:00,49.3,32.9,29.83,West,269,6.0,11.0,53,0.00,,,0.00,172.0,meteohub,2013-03-02 19:06:00,
2013-03-02 14:11:00,48.7,33.3,29.83,NW,309,4.0,9.0,55,0.00,,,0.00,118.0,meteohub,2013-03-02 19:11:00,
2013-03-02 14:16:00,48.6,33.6,29.83,WNW,300,4.0,9.0,56,0.00,,,0.00,63.0,meteohub,2013-03-02 19:16:00,
2013-03-02 14:21:00,47.8,33.3,29.83,WNW,296,7.0,8.0,57,0.00,,,0.00,46.0,meteohub,2013-03-02 19:21:00,
2013-03-02 14:26:00,47.7,33.6,29.83,West,271,2.0,10.0,58,0.00,,,0.00,40.0,meteohub,2013-03-02 19:26:00,
2013-03-02 14:31:00,47.5,33.8,29.84,WNW,296,5.0,10.0,59,0.00,,,0.00,49.0,meteohub,2013-03-02 19:31:00,
2013-03-02 14:36:00,47.3,34.2,29.84,WNW,283,3.0,10.0,60,0.00,,,0.00,60.0,meteohub,2013-03-02 19:36:00,
2013-03-02 14:41:00,47.1,34.0,29.84,WNW,282,6.0,9.0,60,0.00,,,0.00,93.0,meteohub,2013-03-02 19:41:00,
2013-03-02 14:46:00,47.3,34.5,29.84,NNW,343,2.0,9.0,61,0.00,,,0.00,102.0,meteohub,2013-03-02 19:46:00,
2013-03-02 14:51:00,47.5,34.3,29.84,WNW,294,2.0,8.0,60,0.00,,,0.00,86.0,meteohub,2013-03-02 19:51:00,
2013-03-02 14:56:00,47.3,34.5,29.84,WNW,288,5.0,11.0,61,0.00,,,0.00,83.0,meteohub,2013-03-02 19:56:00,
2013-03-02 15:01:00,47.1,34.3,29.84,WNW,288,4.0,11.0,61,0.00,,,0.00,79.0,meteohub,2013-03-02 20:01:00,
2013-03-02 15:06:00,47.1,34.7,29.84,WNW,292,2.0,8.0,62,0.00,,,0.00,70.0,meteohub,2013-03-02 20:06:00,
2013-03-02 15:11:00,47.1,34.3,29.84,WSW,252,6.0,8.0,61,0.00,,,0.00,88.0,meteohub,2013-03-02 20:11:00,
2013-03-02 15:16:00,47.1,34.3,29.83,NW,309,1.0,9.0,61,0.00,,,0.00,114.0,meteohub,2013-03-02 20:16:00,
2013-03-02 15:21:00,47.3,34.5,29.84,South,186,3.0,9.0,61,0.00,,,0.00,141.0,meteohub,2013-03-02 20:21:00,
2013-03-02 15:26:00,47.5,34.7,29.84,SSW,195,3.0,9.0,61,0.00,,,0.00,144.0,meteohub,2013-03-02 20:26:00,
2013-03-02 15:31:00,47.8,34.7,29.84,West,273,2.0,7.0,60,0.00,,,0.00,137.0,meteohub,2013-03-02 20:31:00,
2013-03-02 15:36:00,47.7,34.5,29.84,West,281,5.0,6.0,60,0.00,,,0.00,76.0,meteohub,2013-03-02 20:36:00,
2013-03-02 15:41:00,47.1,34.0,29.84,WNW,299,5.0,10.0,60,0.00,,,0.00,90.0,meteohub,2013-03-02 20:41:00,
2013-03-02 15:46:00,47.1,34.3,29.84,WNW,294,1.0,10.0,61,0.00,,,0.00,100.0,meteohub,2013-03-02 20:46:00,
2013-03-02 15:52:00,47.5,34.7,29.84,SSE,156,2.0,10.0,61,0.00,,,0.00,72.0,meteohub,2013-03-02 20:52:00,
2013-03-02 15:56:00,47.5,34.3,29.84,WNW,288,1.0,8.0,60,0.00,,,0.00,58.0,meteohub,2013-03-02 20:56:00,
2013-03-02 16:02:00,47.1,34.3,29.84,WSW,242,2.0,5.0,61,0.00,,,0.00,44.0,meteohub,2013-03-02 21:02:00,
2013-03-02 16:07:00,46.9,34.2,29.84,West,260,1.0,5.0,61,0.00,,,0.00,54.0,meteohub,2013-03-02 21:07:00,
2013-03-02 16:12:00,46.8,34.5,29.84,WSW,246,0.0,8.0,62,0.00,,,0.00,58.0,meteohub,2013-03-02 21:12:00,
2013-03-02 16:16:00,46.8,34.5,29.84,WNW,284,2.0,8.0,62,0.00,,,0.00,63.0,meteohub,2013-03-02 21:16:00,
2013-03-02 16:21:00,46.8,34.5,29.84,SW,229,2.0,9.0,62,0.00,,,0.00,53.0,meteohub,2013-03-02 21:21:00,
2013-03-02 16:26:00,46.9,35.1,29.85,WNW,285,2.0,9.0,63,0.00,,,0.00,35.0,meteohub,2013-03-02 21:26:00,
2013-03-02 16:31:00,46.8,34.9,29.85,WNW,288,2.0,6.0,63,0.00,,,0.00,44.0,meteohub,2013-03-02 21:31:00,
2013-03-02 16:36:00,46.8,34.9,29.85,SW,216,0.0,6.0,63,0.00,,,0.00,35.0,meteohub,2013-03-02 21:36:00,
2013-03-02 16:41:00,46.8,35.2,29.85,WSW,249,4.0,6.0,64,0.00,,,0.00,32.0,meteohub,2013-03-02 21:41:00,
2013-03-02 16:46:00,46.6,35.1,29.85,SSW,211,2.0,7.0,64,0.00,,,0.00,42.0,meteohub,2013-03-02 21:46:00,
2013-03-02 16:51:00,46.6,35.1,29.85,NNW,342,2.0,7.0,64,0.00,,,0.00,40.0,meteohub,2013-03-02 21:51:00,
2013-03-02 16:56:00,46.6,35.4,29.85,SW,226,3.0,7.0,65,0.00,,,0.00,28.0,meteohub,2013-03-02 21:56:00,
2013-03-02 17:02:00,46.4,35.2,29.85,WNW,297,2.0,6.0,65,0.00,,,0.00,28.0,meteohub,2013-03-02 22:02:00,
2013-03-02 17:07:00,46.2,35.1,29.85,WNW,286,4.0,6.0,65,0.00,,,0.00,23.0,meteohub,2013-03-02 22:07:00,
2013-03-02 17:12:00,46.0,34.9,29.86,WNW,284,3.0,11.0,65,0.00,,,0.00,14.0,meteohub,2013-03-02 22:12:00,
2013-03-02 17:17:00,46.0,35.2,29.86,WSW,254,3.0,11.0,66,0.00,,,0.00,19.0,meteohub,2013-03-02 22:17:00,
2013-03-02 17:22:00,46.0,35.2,29.86,NW,314,3.0,11.0,66,0.00,,,0.00,26.0,meteohub,2013-03-02 22:22:00,
2013-03-02 17:27:00,46.0,35.8,29.86,West,273,1.0,7.0,67,0.00,,,0.00,26.0,meteohub,2013-03-02 22:27:00,
2013-03-02 17:32:00,45.9,35.6,29.86,West,264,0.0,6.0,67,0.00,,,0.00,26.0,meteohub,2013-03-02 22:32:00,
2013-03-02 17:37:00,45.9,35.6,29.86,WNW,288,2.0,6.0,67,0.00,,,0.00,23.0,meteohub,2013-03-02 22:37:00,
2013-03-02 17:42:00,45.9,35.6,29.86,WNW,288,1.0,6.0,67,0.00,,,0.00,18.0,meteohub,2013-03-02 22:42:00,
2013-03-02 17:47:00,45.9,35.6,29.86,West,279,5.0,5.0,67,0.00,,,0.00,14.0,meteohub,2013-03-02 22:47:00,
2013-03-02 17:52:00,45.9,36.0,29.87,West,267,3.0,6.0,68,0.00,,,0.00,11.0,meteohub,2013-03-02 22:52:00,
2013-03-02 17:57:00,45.7,35.8,29.87,West,267,2.0,6.0,68,0.00,,,0.00,9.0,meteohub,2013-03-02 22:57:00,
2013-03-02 18:02:00,45.7,35.8,29.87,SW,228,4.0,8.0,68,0.00,,,0.00,5.0,meteohub,2013-03-02 23:02:00,
2013-03-02 18:07:00,45.7,35.8,29.87,West,280,1.0,8.0,68,0.00,,,0.00,0.0,meteohub,2013-03-02 23:07:00,
2013-03-02 18:12:00,45.5,36.0,29.87,WNW,302,4.0,8.0,69,0.00,,,0.00,0.0,meteohub,2013-03-02 23:12:00,
2013-03-02 18:17:00,45.5,36.0,29.87,WNW,300,1.0,6.0,69,0.00,,,0.00,0.0,meteohub,2013-03-02 23:17:00,
2013-03-02 18:22:00,45.3,35.8,29.87,West,275,2.0,5.0,69,0.00,,,0.00,0.0,meteohub,2013-03-02 23:22:00,
2013-03-02 18:27:00,45.3,35.8,29.88,West,278,2.0,4.0,69,0.00,,,0.00,0.0,meteohub,2013-03-02 23:27:00,
2013-03-02 18:32:00,45.3,35.8,29.88,West,279,2.0,6.0,69,0.00,,,0.00,0.0,meteohub,2013-03-02 23:32:00,
2013-03-02 18:37:00,45.3,36.1,29.88,West,281,1.0,6.0,70,0.00,,,0.00,0.0,meteohub,2013-03-02 23:37:00,
2013-03-02 18:42:00,45.1,36.0,29.88,WNW,290,3.0,8.0,70,0.00,,,0.00,0.0,meteohub,2013-03-02 23:42:00,
2013-03-02 18:47:00,45.1,36.0,29.88,West,280,3.0,8.0,70,0.00,,,0.00,0.0,meteohub,2013-03-02 23:47:00,
2013-03-02 18:52:00,45.1,36.0,29.88,WNW,286,2.0,6.0,70,0.00,,,0.00,0.0,meteohub,2013-03-02 23:52:00,
2013-03-02 18:57:00,45.1,36.0,29.88,West,272,1.0,6.0,70,0.00,,,0.00,0.0,meteohub,2013-03-02 23:57:00,
2013-03-02 19:02:00,45.1,36.0,29.88,West,272,1.0,6.0,70,0.00,,,0.00,0.0,meteohub,2013-03-03 00:02:00,
2013-03-02 19:07:00,45.0,35.8,29.88,West,261,1.0,6.0,70,0.00,,,0.00,0.0,meteohub,2013-03-03 00:07:00,
2013-03-02 19:12:00,45.0,35.8,29.88,SW,232,1.0,6.0,70,0.00,,,0.00,0.0,meteohub,2013-03-03 00:12:00,
2013-03-02 19:17:00,45.0,35.8,29.88,WSW,257,3.0,6.0,70,0.00,,,0.00,0.0,meteohub,2013-03-03 00:17:00,
2013-03-02 19:22:00,45.0,35.8,29.88,WSW,246,0.0,5.0,70,0.00,,,0.00,0.0,meteohub,2013-03-03 00:22:00,
2013-03-02 19:27:00,45.0,35.8,29.89,WNW,284,2.0,4.0,70,0.00,,,0.00,0.0,meteohub,2013-03-03 00:27:00,
2013-03-02 19:32:00,45.0,36.1,29.89,West,265,3.0,5.0,71,0.00,,,0.00,0.0,meteohub,2013-03-03 00:32:00,
2013-03-02 19:37:00,44.8,36.0,29.89,WSW,254,0.0,5.0,71,0.00,,,0.00,0.0,meteohub,2013-03-03 00:37:00,
2013-03-02 19:42:00,44.8,36.0,29.89,WNW,294,0.0,5.0,71,0.00,,,0.00,0.0,meteohub,2013-03-03 00:42:00,
2013-03-02 19:47:00,44.6,35.8,29.90,NW,307,3.0,5.0,71,0.00,,,0.00,0.0,meteohub,2013-03-03 00:47:00,
2013-03-02 19:52:00,44.4,36.0,29.89,NW,319,0.0,5.0,72,0.00,,,0.00,0.0,meteohub,2013-03-03 00:52:00,
2013-03-02 19:57:00,44.2,35.8,29.90,WNW,293,2.0,5.0,72,0.00,,,0.00,0.0,meteohub,2013-03-03 00:57:00,
2013-03-02 20:02:00,44.1,35.6,29.90,WSW,247,0.0,7.0,72,0.00,,,0.00,0.0,meteohub,2013-03-03 01:02:00,
2013-03-02 20:07:00,43.9,35.4,29.90,WSW,242,4.0,7.0,72,0.00,,,0.00,0.0,meteohub,2013-03-03 01:07:00,
2013-03-02 20:12:00,43.9,35.4,29.90,West,279,2.0,7.0,72,0.00,,,0.00,0.0,meteohub,2013-03-03 01:12:00,
2013-03-02 20:17:00,43.7,35.2,29.90,WNW,298,1.0,7.0,72,0.00,,,0.00,0.0,meteohub,2013-03-03 01:17:00,
2013-03-02 20:22:00,43.5,35.4,29.90,NW,317,2.0,7.0,73,0.00,,,0.00,0.0,meteohub,2013-03-03 01:22:00,
2013-03-02 20:27:00,43.3,35.2,29.90,West,261,2.0,7.0,73,0.00,,,0.00,0.0,meteohub,2013-03-03 01:27:00,
2013-03-02 20:32:00,43.2,35.1,29.90,WNW,298,1.0,7.0,73,0.00,,,0.00,0.0,meteohub,2013-03-03 01:32:00,
2013-03-02 20:37:00,43.2,35.4,29.90,WNW,282,3.0,5.0,74,0.00,,,0.00,0.0,meteohub,2013-03-03 01:37:00,
2013-03-02 20:42:00,43.0,35.2,29.91,SW,223,0.0,5.0,74,0.00,,,0.00,0.0,meteohub,2013-03-03 01:42:00,
2013-03-02 20:47:00,42.6,34.9,29.91,West,273,0.0,4.0,74,0.00,,,0.00,0.0,meteohub,2013-03-03 01:47:00,
2013-03-02 20:52:00,42.6,35.2,29.91,West,279,0.0,3.0,75,0.00,,,0.00,0.0,meteohub,2013-03-03 01:52:00,
2013-03-02 20:57:00,42.3,35.2,29.91,West,274,1.0,3.0,76,0.00,,,0.00,0.0,meteohub,2013-03-03 01:57:00,
2013-03-02 21:02:00,42.3,35.2,29.91,WNW,292,0.0,3.0,76,0.00,,,0.00,0.0,meteohub,2013-03-03 02:02:00,
2013-03-02 21:07:00,42.1,35.1,29.91,WNW,292,0.0,3.0,76,0.00,,,0.00,0.0,meteohub,2013-03-03 02:07:00,
2013-03-02 21:12:00,41.5,34.9,29.91,WNW,292,1.0,3.0,77,0.00,,,0.00,0.0,meteohub,2013-03-03 02:12:00,
2013-03-02 21:17:00,41.2,34.9,29.91,WNW,292,0.0,3.0,78,0.00,,,0.00,0.0,meteohub,2013-03-03 02:17:00,
2013-03-02 21:22:00,40.8,34.9,29.91,WNW,292,0.0,1.0,79,0.00,,,0.00,0.0,meteohub,2013-03-03 02:22:00,
2013-03-02 21:27:00,40.6,34.9,29.91,WNW,292,0.0,1.0,80,0.00,,,0.00,0.0,meteohub,2013-03-03 02:27:00,
2013-03-02 21:32:00,40.6,34.9,29.91,WNW,292,0.0,1.0,80,0.00,,,0.00,0.0,meteohub,2013-03-03 02:32:00,
2013-03-02 21:37:00,40.3,34.9,29.92,WNW,292,0.0,1.0,81,0.00,,,0.00,0.0,meteohub,2013-03-03 02:37:00,
2013-03-02 21:42:00,40.3,34.9,29.92,WNW,292,0.0,1.0,81,0.00,,,0.00,0.0,meteohub,2013-03-03 02:42:00,
2013-03-02 21:47:00,40.3,34.9,29.92,WNW,292,0.0,2.0,81,0.00,,,0.00,0.0,meteohub,2013-03-03 02:47:00,
2013-03-02 21:52:00,40.3,34.9,29.92,WNW,292,0.0,2.0,81,0.00,,,0.00,0.0,meteohub,2013-03-03 02:52:00,
2013-03-02 21:57:00,40.3,34.9,29.92,WNW,292,0.0,2.0,81,0.00,,,0.00,0.0,meteohub,2013-03-03 02:57:00,
2013-03-02 22:02:00,40.1,35.1,29.92,WNW,292,0.0,2.0,82,0.00,,,0.00,0.0,meteohub,2013-03-03 03:02:00,
2013-03-02 22:07:00,39.7,35.1,29.92,WNW,292,0.0,2.0,83,0.00,,,0.00,0.0,meteohub,2013-03-03 03:07:00,
2013-03-02 22:12:00,39.6,34.9,29.92,WNW,292,0.0,2.0,83,0.00,,,0.00,0.0,meteohub,2013-03-03 03:12:00,
2013-03-02 22:17:00,39.4,34.9,29.92,WNW,292,0.0,1.0,84,0.00,,,0.00,0.0,meteohub,2013-03-03 03:17:00,
2013-03-02 22:22:00,39.2,34.7,29.92,WNW,292,0.0,1.0,84,0.00,,,0.00,0.0,meteohub,2013-03-03 03:22:00,
2013-03-02 22:27:00,39.0,34.9,29.92,WNW,292,0.0,1.0,85,0.00,,,0.00,0.0,meteohub,2013-03-03 03:27:00,
2013-03-02 22:32:00,39.0,34.9,29.92,WNW,292,0.0,0.0,85,0.00,,,0.00,0.0,meteohub,2013-03-03 03:32:00,
2013-03-02 22:37:00,38.8,35.1,29.91,WNW,292,0.0,0.0,86,0.00,,,0.00,0.0,meteohub,2013-03-03 03:37:00,
2013-03-02 22:42:00,38.7,34.9,29.91,WNW,292,0.0,0.0,86,0.00,,,0.00,0.0,meteohub,2013-03-03 03:42:00,
2013-03-02 22:47:00,38.5,34.7,29.91,WNW,292,0.0,0.0,86,0.00,,,0.00,0.0,meteohub,2013-03-03 03:47:00,
2013-03-02 22:52:00,38.1,34.3,29.91,WNW,292,0.0,0.0,86,0.00,,,0.00,0.0,meteohub,2013-03-03 03:52:00,
2013-03-02 22:57:00,38.1,34.5,29.91,WNW,292,0.0,1.0,87,0.00,,,0.00,0.0,meteohub,2013-03-03 03:57:00,
2013-03-02 23:02:00,37.9,34.3,29.91,WNW,292,0.0,1.0,87,0.00,,,0.00,0.0,meteohub,2013-03-03 04:02:00,
2013-03-02 23:07:00,37.9,34.3,29.91,WNW,292,0.0,0.0,87,0.00,,,0.00,0.0,meteohub,2013-03-03 04:07:00,
2013-03-02 23:12:00,37.9,34.7,29.91,WNW,292,0.0,0.0,88,0.00,,,0.00,0.0,meteohub,2013-03-03 04:12:00,
2013-03-02 23:17:00,37.9,34.7,29.91,WNW,292,0.0,0.0,88,0.00,,,0.00,0.0,meteohub,2013-03-03 04:17:00,
2013-03-02 23:22:00,37.9,34.7,29.91,WNW,292,0.0,0.0,88,0.00,,,0.00,0.0,meteohub,2013-03-03 04:22:00,
2013-03-02 23:27:00,38.3,35.1,29.91,WNW,292,0.0,1.0,88,0.00,,,0.00,0.0,meteohub,2013-03-03 04:27:00,
2013-03-02 23:32:00,38.7,35.4,29.91,WNW,292,0.0,1.0,88,0.00,,,0.00,0.0,meteohub,2013-03-03 04:32:00,
2013-03-02 23:37:00,38.8,35.6,29.91,WNW,292,0.0,1.0,88,0.00,,,0.00,0.0,meteohub,2013-03-03 04:37:00,
2013-03-02 23:42:00,39.0,35.4,29.91,WNW,292,1.0,2.0,87,0.00,,,0.00,0.0,meteohub,2013-03-03 04:42:00,
2013-03-02 23:47:00,39.0,35.4,29.91,WNW,292,1.0,2.0,87,0.00,,,0.00,0.0,meteohub,2013-03-03 04:47:00,
2013-03-02 23:52:00,39.0,35.2,29.91,West,277,3.0,3.0,86,0.00,,,0.00,0.0,meteohub,2013-03-03 04:52:00,
2013-03-02 23:57:00,39.4,35.2,29.91,NW,305,2.0,4.0,85,0.00,,,0.00,0.0,meteohub,2013-03-03 04:57:00,